[[{"header":{"parameterUnit":"m.s-1","parameterCategory":2,"la1":30.2992,"la2":30.254,"lo1":-89.0895,"lo2":-89.0443,"dy":0.0025,"dx":0.0025,"nx":19,"ny":19,"refTime":"2026-05-15T03:00:00:Z","depth":"0","parameterNumber":2,"parameterNumberName":"U-component_of_CURRENTS"},"data":[0,0,0,0.3333,0.3334,0.338,0.338,0.3445,0.3445,0,0,0,0,0,0,0,0,0,0,0,0.3318,0.3318,0.3333,0.3334,0.338,0.338,0.3444,0.3445,0,0,0,0,0,0,0,0,0,0,0,0.3318,0.3318,0.3319,0.3334,0.338,0.338,0.3444,0.3409,0,0,0,0,0,0,0,0,0,0,0.3365,0.335,0.3318,0.3319,0.3334,0.338,0.338,0.3408,0.3412,0.3424,0,0.3429,0,0.3436,0.3449,0.3449,0,0,0,0.3339,0.3346,0.3356,0.3319,0.3334,0.3379,0.336,0.341,0.3414,0.3429,0.343,0.3432,0.3437,0.3449,0.345,0.3545,0.3545,0,0,0.3336,0.333,0.3353,0.3359,0.3345,0.3359,0.3362,0.3413,0.3418,0.343,0.3434,0.3438,0.345,0.345,0.3544,0.3545,0,0,0,0.3326,0.3329,0.3337,0.3356,0.3363,0.336,0.3363,0.3416,0.3418,0.3435,0.3439,0.345,0.3451,0.3544,0.3545,0.3644,0,0,0,0.3324,0.3322,0.3336,0.3334,0.3362,0.3389,0.3366,0.3415,0.342,0.3439,0.345,0.3451,0.3543,0.3544,0.364,0.3662,0,0,0,0.3316,0.3321,0.3325,0.3333,0.335,0.3389,0.3394,0.3416,0.3423,0.3449,0.3452,0.3542,0.3544,0.3636,0.3657,0.3785,0,0,0,0.3311,0.3333,0.3325,0.3357,0.335,0.3395,0.3394,0.3441,0.3468,0.345,0.3543,0.3544,0.3635,0.3653,0.378,0.3847,0.3876,0,0,0.3339,0.3336,0.3357,0.3351,0.34,0.3389,0.3465,0.3503,0.3492,0.3526,0.3528,0.3641,0.3656,0.3784,0.3929,0.3955,0,0,0,0.3367,0.3374,0.3391,0.3414,0.3441,0.3495,0.3514,0.3544,0.3608,0.3513,0.3642,0.3648,0.3726,0.3756,0.3777,0.3722,0.3551,0.3551,0.3551,0.3408,0.3416,0.3445,0.3463,0.3498,0.3573,0.364,0.3681,0.3656,0.3709,0.3731,0.3892,0.3923,0.394,0.3882,0.3743,0.3744,0.3744,0.3744,0.3443,0.3458,0.3468,0.349,0.3551,0.3611,0.3746,0.3787,0.3906,0.3828,0.3901,0.3859,0.3969,0.3899,0.3751,0.3749,0.3749,0.3748,0.3748,0.3464,0.3469,0.3462,0.3493,0.3568,0.3659,0.3809,0.3901,0.3985,0.4059,0.4122,0.412,0.406,0.4115,0.4116,0.4116,0.4117,0.4117,0.4118,0.3489,0.3481,0.348,0.3514,0.354,0.366,0.3851,0.3982,0.4178,0.4228,0.4229,0.4111,0.4005,0.3993,0.4128,0.4126,0.4125,0.4124,0.4123,0.3506,0.3498,0.3496,0.3501,0.3564,0.3632,0.3841,0.4129,0.4303,0.4433,0.4379,0.4344,0.4327,0.4308,0.4303,0.4512,0.4512,0.4512,0.4512,0.3513,0.3515,0.3478,0.3474,0.3532,0.3615,0.3775,0.4068,0.4382,0.4485,0.4507,0.4414,0.44,0.4379,0.4359,0.4351,0.4567,0.4567,0.4567,0.3507,0.3501,0.3454,0.3436,0.3478,0.3557,0.3637,0.3832,0.4306,0.4558,0.4424,0.4422,0.4266,0.4249,0.4191,0.4168,0.4144,0,0]},{"header":{"parameterUnit":"m.s-1","parameterCategory":2,"la1":30.2992,"la2":30.254,"lo1":-89.0895,"lo2":-89.0443,"dy":0.0025,"dx":0.0025,"nx":19,"ny":19,"refTime":"2026-05-15T03:00:00:Z","depth":"0","parameterNumber":3,"parameterNumberName":"V-component_of_CURRENTS"},"data":[0,0,0,0.0198,0.0199,0.0193,0.0193,0.0088,0.0087,0,0,0,0,0,0,0,0,0,0,0,0.0197,0.0197,0.0198,0.0199,0.0193,0.0193,0.0088,0.0087,0,0,0,0,0,0,0,0,0,0,0,0.0197,0.0197,0.0198,0.0199,0.0193,0.0193,0.0088,0.0111,0,0,0,0,0,0,0,0,0,0,0.0126,0.0138,0.0197,0.0198,0.0199,0.0194,0.0193,0.0113,0.011,0.0069,0,0.0086,0,0.0093,0.008,0.0079,0,0,0,0.0176,0.0141,0.0154,0.0198,0.0199,0.0194,0.0189,0.0112,0.0108,0.0064,0.0085,0.0082,0.0092,0.0079,0.0078,0.0064,0.0064,0,0,0.0176,0.0173,0.0158,0.0153,0.0219,0.019,0.0189,0.011,0.0103,0.0084,0.008,0.009,0.0078,0.0077,0.0063,0.0064,0,0,0,0.0193,0.0174,0.019,0.0156,0.0169,0.019,0.019,0.0106,0.0117,0.0079,0.0089,0.0077,0.0076,0.0062,0.0063,0.0235,0,0,0,0.0192,0.0185,0.0191,0.0185,0.0172,0.0149,0.0188,0.0122,0.0114,0.0089,0.0077,0.0075,0.0062,0.0063,0.0229,0.0334,0,0,0,0.0193,0.0185,0.0195,0.0186,0.0197,0.0151,0.0156,0.0121,0.0121,0.0079,0.0075,0.0061,0.0063,0.0223,0.0323,0.0419,0,0,0,0.0175,0.0237,0.0195,0.0256,0.0197,0.0241,0.0157,0.0158,0.0132,0.0077,0.0062,0.0063,0.0221,0.0316,0.0412,0.0564,0.0609,0,0,0.0256,0.0246,0.0285,0.0249,0.032,0.0238,0.0308,0.023,0.0138,0.0075,0.0075,0.0231,0.0322,0.0417,0.0652,0.0695,0,0,0,0.0313,0.0345,0.0356,0.0381,0.0379,0.0404,0.0321,0.0297,0.025,0.0135,0.0213,0.0266,0.0321,0.0397,0.043,0.0234,0.007,0.007,0.007,0.0421,0.0425,0.0497,0.0504,0.0519,0.051,0.053,0.0475,0.0348,0.0355,0.0392,0.0567,0.0649,0.0676,0.0471,0.0358,0.0359,0.0359,0.036,0.0561,0.0612,0.0608,0.0677,0.0683,0.0729,0.0726,0.0676,0.0678,0.0538,0.0582,0.0557,0.0724,0.0491,0.0371,0.0369,0.0367,0.0366,0.0366,0.0632,0.0664,0.0691,0.0782,0.088,0.0894,0.1037,0.0973,0.0861,0.0901,0.0934,0.0932,0.074,0.09,0.0901,0.0902,0.0903,0.0904,0.0904,0.0694,0.0731,0.0815,0.0909,0.099,0.1127,0.1206,0.1247,0.1247,0.1158,0.1158,0.079,0.0731,0.0724,0.0918,0.0916,0.0914,0.0913,0.0912,0.0798,0.0799,0.0934,0.1016,0.1218,0.142,0.1485,0.1634,0.1626,0.1671,0.1216,0.1284,0.1247,0.1219,0.1222,0.1534,0.1534,0.1534,0.1534,0.0853,0.0871,0.104,0.119,0.1391,0.1555,0.1861,0.1991,0.1757,0.1576,0.1356,0.1226,0.121,0.1158,0.1131,0.1125,0.1405,0.1404,0.1403,0.0923,0.0965,0.1093,0.123,0.1461,0.1705,0.2036,0.2299,0.1867,0.1366,0.1055,0.1061,0.0824,0.0814,0.0685,0.0663,0.0635,0,0]}],[{"header":{"parameterUnit":"m.s-1","parameterCategory":2,"la1":30.2992,"la2":30.254,"lo1":-89.0895,"lo2":-89.0443,"dy":0.0025,"dx":0.0025,"nx":19,"ny":19,"refTime":"2026-05-15T03:00:00:Z","depth":"2","parameterNumber":2,"parameterNumberName":"U-component_of_CURRENTS"},"data":[0,0,0,0.3283,0.3285,0.3358,0.3358,0.3397,0.3398,0,0,0,0,0,0,0,0,0,0,0,0.3252,0.3253,0.3282,0.3285,0.3358,0.3358,0.3397,0.3398,0,0,0,0,0,0,0,0,0,0,0,0.3252,0.3253,0.3254,0.3285,0.3358,0.3358,0.3397,0.3351,0,0,0,0,0,0,0,0,0,0,0.3285,0.3255,0.3253,0.3254,0.3286,0.3358,0.3358,0.3349,0.3354,0.3354,0,0.3379,0,0.3399,0.3401,0.3401,0,0,0,0.3267,0.3251,0.3292,0.3254,0.3287,0.3358,0.332,0.3352,0.3358,0.336,0.338,0.3382,0.34,0.3401,0.3401,0.3495,0.3495,0,0,0.3263,0.3241,0.3289,0.3296,0.3323,0.3318,0.3323,0.3356,0.3355,0.338,0.3383,0.3401,0.3401,0.3402,0.3494,0.3495,0,0,0,0.3264,0.3238,0.3278,0.3294,0.3317,0.332,0.3326,0.3353,0.3373,0.3384,0.3401,0.3402,0.3402,0.3493,0.3494,0.3601,0,0,0,0.326,0.324,0.3277,0.3261,0.3318,0.334,0.3321,0.337,0.3375,0.3401,0.3402,0.3403,0.3493,0.3494,0.3596,0.356,0,0,0,0.3246,0.3238,0.3257,0.326,0.3303,0.3341,0.3361,0.3372,0.3386,0.3401,0.3403,0.3492,0.3494,0.3592,0.3555,0.3685,0,0,0,0.3206,0.3207,0.3256,0.3291,0.3303,0.336,0.3361,0.3393,0.3408,0.3402,0.3493,0.3494,0.3591,0.3553,0.3681,0.3418,0.3417,0,0,0.3177,0.3202,0.3233,0.328,0.3335,0.3347,0.3418,0.3439,0.3434,0.3473,0.3475,0.3598,0.3555,0.3684,0.3512,0.3508,0,0,0,0.3207,0.3224,0.3253,0.3312,0.3367,0.3424,0.3454,0.3495,0.3564,0.3456,0.3601,0.3568,0.3649,0.3481,0.3478,0.3502,0.3502,0.3502,0.3501,0.2996,0.3129,0.3188,0.3338,0.3384,0.348,0.3544,0.3605,0.3608,0.3671,0.3663,0.3824,0.3647,0.3642,0.3712,0.3713,0.3713,0.3714,0.3714,0.2968,0.304,0.3186,0.3306,0.3407,0.3472,0.3629,0.3686,0.3819,0.3768,0.3846,0.3604,0.3644,0.3722,0.3721,0.372,0.3719,0.3718,0.3718,0.2858,0.293,0.3043,0.3238,0.3329,0.3467,0.3599,0.3732,0.3859,0.3932,0.3796,0.3789,0.3882,0.4017,0.4017,0.4018,0.4018,0.4019,0.4019,0.2718,0.285,0.2976,0.3173,0.3226,0.3359,0.3587,0.3698,0.3805,0.3827,0.3826,0.3926,0.3916,0.3899,0.4026,0.4025,0.4024,0.4023,0.4023,0.2659,0.2757,0.2897,0.2985,0.316,0.3114,0.3392,0.3505,0.3704,0.3683,0.3801,0.3804,0.3739,0.3736,0.3713,0.3785,0.3785,0.3785,0.3785,0.2594,0.2674,0.2831,0.2913,0.3,0.301,0.2929,0.3,0.3239,0.3304,0.3325,0.3173,0.3193,0.309,0.3102,0.3063,0.2966,0.2965,0.2963,0.2575,0.2631,0.2674,0.2829,0.2894,0.2815,0.2524,0.2398,0.2643,0.2933,0.32,0.3726,0.3553,0.3565,0.3444,0.3448,0.34,0,0]},{"header":{"parameterUnit":"m.s-1","parameterCategory":2,"la1":30.2992,"la2":30.254,"lo1":-89.0895,"lo2":-89.0443,"dy":0.0025,"dx":0.0025,"nx":19,"ny":19,"refTime":"2026-05-15T03:00:00:Z","depth":"2","parameterNumber":3,"parameterNumberName":"V-component_of_CURRENTS"},"data":[0,0,0,0.0294,0.0295,0.0293,0.0293,0.0225,0.0225,0,0,0,0,0,0,0,0,0,0,0,0.0287,0.0287,0.0294,0.0295,0.0293,0.0293,0.0226,0.0225,0,0,0,0,0,0,0,0,0,0,0,0.0287,0.0287,0.0288,0.0295,0.0293,0.0293,0.0226,0.0237,0,0,0,0,0,0,0,0,0,0,0.0245,0.0249,0.0287,0.0288,0.0295,0.0294,0.0293,0.0238,0.0237,0.0215,0,0.0229,0,0.0239,0.0221,0.0221,0,0,0,0.027,0.0251,0.0264,0.0288,0.0296,0.0294,0.0287,0.0238,0.0236,0.0213,0.0228,0.0227,0.0238,0.0221,0.0221,0.0255,0.0255,0,0,0.027,0.0268,0.0265,0.0263,0.0312,0.0287,0.0287,0.0237,0.0232,0.0228,0.0225,0.0237,0.0221,0.022,0.0254,0.0255,0,0,0,0.0287,0.0268,0.0282,0.0265,0.0278,0.0288,0.0288,0.0234,0.0244,0.0225,0.0236,0.022,0.022,0.0253,0.0254,0.0414,0,0,0,0.0286,0.028,0.0283,0.0278,0.028,0.0264,0.0286,0.0247,0.0242,0.0236,0.022,0.0219,0.0252,0.0254,0.0408,0.0478,0,0,0,0.0284,0.0279,0.0287,0.0278,0.0292,0.0266,0.0271,0.0246,0.025,0.0221,0.0219,0.0251,0.0253,0.0402,0.0468,0.0535,0,0,0,0.0268,0.0311,0.0287,0.0348,0.0292,0.0348,0.0271,0.0284,0.0269,0.022,0.0252,0.0254,0.04,0.0462,0.0529,0.0443,0.0464,0,0,0.0322,0.0317,0.036,0.0341,0.0417,0.0345,0.0428,0.0365,0.0288,0.0257,0.0258,0.041,0.0467,0.0533,0.0552,0.0569,0,0,0,0.0379,0.0413,0.043,0.0471,0.0483,0.0514,0.0458,0.0436,0.041,0.0293,0.0403,0.0434,0.0471,0.0406,0.0421,0.0263,0.0263,0.0263,0.0262,0.0435,0.0472,0.0552,0.0598,0.0627,0.063,0.0647,0.0604,0.0515,0.0527,0.056,0.0713,0.0646,0.0656,0.0552,0.0553,0.0553,0.0554,0.0554,0.0549,0.061,0.0659,0.0753,0.0782,0.0843,0.0839,0.0795,0.0802,0.0697,0.0725,0.0572,0.0681,0.0567,0.0564,0.0562,0.0561,0.056,0.0559,0.0586,0.0625,0.0696,0.0832,0.0942,0.098,0.1092,0.1043,0.095,0.0984,0.0867,0.0862,0.0806,0.0992,0.0993,0.0993,0.0994,0.0994,0.0995,0.059,0.0665,0.0774,0.0916,0.1014,0.1146,0.1228,0.1243,0.1152,0.1032,0.103,0.0859,0.0845,0.0829,0.1005,0.1003,0.1002,0.1001,0.1,0.0657,0.0671,0.0836,0.0945,0.1184,0.1353,0.1415,0.1404,0.1363,0.1286,0.104,0.1036,0.0969,0.0953,0.0938,0.1132,0.1132,0.1132,0.1132,0.0675,0.0702,0.0913,0.1092,0.1307,0.1456,0.1596,0.1482,0.1262,0.1081,0.1083,0.0967,0.0962,0.0887,0.0873,0.0852,0.1024,0.1024,0.1024,0.0733,0.0789,0.0943,0.1123,0.1374,0.1578,0.1686,0.1521,0.1139,0.1023,0.1096,0.1119,0.0947,0.094,0.0814,0.0796,0.0758,0,0]}],[{"header":{"parameterUnit":"m.s-1","parameterCategory":2,"la1":30.2992,"la2":30.254,"lo1":-89.0895,"lo2":-89.0443,"dy":0.0025,"dx":0.0025,"nx":19,"ny":19,"refTime":"2026-05-15T03:00:00:Z","depth":"4","parameterNumber":2,"parameterNumberName":"U-component_of_CURRENTS"},"data":[0,0,0,0.1221,0.1226,0.1401,0.1401,0.1461,0.1461,0,0,0,0,0,0,0,0,0,0,0,0.116,0.1162,0.1221,0.1226,0.1401,0.1401,0.1461,0.1461,0,0,0,0,0,0,0,0,0,0,0,0.1159,0.1161,0.1164,0.1227,0.14,0.1401,0.1461,0.1362,0,0,0,0,0,0,0,0,0,0,0.121,0.1171,0.1161,0.1164,0.1228,0.14,0.1401,0.1359,0.1368,0.1344,0,0.1403,0,0.1445,0.1464,0.1464,0,0,0,0.1197,0.1163,0.1235,0.1164,0.123,0.14,0.1313,0.1365,0.1376,0.1356,0.1405,0.1408,0.1446,0.1464,0.1465,0.1593,0.1594,0,0,0.1187,0.1157,0.1228,0.1242,0.1315,0.1308,0.1319,0.1373,0.1382,0.1405,0.1411,0.1447,0.1465,0.1465,0.1592,0.1593,0,0,0,0.1179,0.115,0.1223,0.1238,0.1291,0.1314,0.1327,0.1379,0.1412,0.1412,0.1448,0.1465,0.1465,0.1591,0.1593,0.169,0,0,0,0.1172,0.1149,0.1219,0.1198,0.1292,0.1356,0.1331,0.1408,0.1416,0.1447,0.1465,0.1466,0.159,0.1592,0.1685,0.1699,0,0,0,0.1145,0.1145,0.1183,0.1197,0.1289,0.1357,0.1392,0.1411,0.1438,0.1464,0.1466,0.1589,0.1591,0.168,0.1692,0.174,0,0,0,0.108,0.1139,0.1183,0.1248,0.1288,0.1338,0.1392,0.1442,0.1465,0.1465,0.159,0.1592,0.1679,0.1688,0.1735,0.147,0,0,0,0.111,0.1141,0.1177,0.1221,0.1255,0.131,0.139,0.1471,0.1499,0.1552,0.1557,0.1687,0.1691,0.1739,0.1623,0,0,0,0,0.1155,0.1184,0.1202,0.1242,0.128,0.1349,0.1423,0.1489,0.1624,0.1537,0.1712,0.1711,0.1738,0.1572,0.1605,0.1605,0.1604,0.1604,0.1604,0.1173,0.1183,0.1209,0.1238,0.1272,0.1386,0.1494,0.1608,0.1631,0.1732,0.1811,0.1936,0.1769,0.1847,0.1848,0.1849,0.1849,0.1849,0.185,0.1199,0.1198,0.122,0.1267,0.1322,0.1403,0.1562,0.1673,0.1904,0.1885,0.1908,0.1712,0.186,0.1858,0.1856,0.1855,0.1854,0.1854,0.1853,0.1183,0.1167,0.1235,0.1263,0.1364,0.1471,0.1651,0.1852,0.1939,0.2069,0.1894,0.1996,0.1963,0.2103,0.2103,0.2103,0.2104,0.2104,0.2104,0.1123,0.116,0.1178,0.1255,0.1314,0.1462,0.1731,0.1832,0.1971,0.196,0.2107,0.2021,0.2012,0.1977,0.2109,0.2108,0.2108,0.2107,0.2107,0.1033,0.1048,0.1063,0.111,0.1248,0.135,0.1608,0.1755,0.1856,0.1828,0.1889,0.1899,0.1828,0.1824,0.1779,0.1857,0.1854,0.1851,0,0.0944,0.0946,0.0945,0.0977,0.1068,0.1259,0.1329,0.1479,0.1629,0.16,0.1798,0.1862,0.1869,0.178,0.1773,0.1714,0,0,0,0.0848,0.0848,0.0811,0.0853,0.0963,0.1134,0.1356,0.1387,0.1612,0.1603,0.1777,0.1796,0.1891,0.2124,0.2037,0.2027,0.1965,0,0]},{"header":{"parameterUnit":"m.s-1","parameterCategory":2,"la1":30.2992,"la2":30.254,"lo1":-89.0895,"lo2":-89.0443,"dy":0.0025,"dx":0.0025,"nx":19,"ny":19,"refTime":"2026-05-15T03:00:00:Z","depth":"4","parameterNumber":3,"parameterNumberName":"V-component_of_CURRENTS"},"data":[0,0,0,0.0113,0.0112,0.0064,0.0064,-0.0044,-0.0045,0,0,0,0,0,0,0,0,0,0,0,0.0134,0.0134,0.0113,0.0112,0.0064,0.0064,-0.0044,-0.0045,0,0,0,0,0,0,0,0,0,0,0,0.0134,0.0134,0.0134,0.0112,0.0064,0.0064,-0.0044,0.0002,0,0,0,0,0,0,0,0,0,0,0.0053,0.0088,0.0134,0.0134,0.0112,0.0064,0.0064,0.0004,-0.0001,-0.0032,0,-0.0029,0,-0.0038,-0.0052,-0.0053,0,0,0,0.0102,0.0093,0.0076,0.0134,0.0111,0.0064,0.0083,0.0002,-0.0005,-0.004,-0.003,-0.0034,-0.004,-0.0053,-0.0054,-0.0162,-0.0162,0,0,0.0105,0.0123,0.008,0.0072,0.0112,0.0085,0.0082,-0.0002,-0.0002,-0.0031,-0.0037,-0.0042,-0.0054,-0.0055,-0.0162,-0.0162,0,0,0,0.0119,0.0126,0.0111,0.0077,0.0072,0.0083,0.008,0.0002,-0.0003,-0.0038,-0.0043,-0.0054,-0.0056,-0.0161,-0.0162,-0.0084,0,0,0,0.012,0.0134,0.0113,0.0123,0.0075,0.0044,0.0086,0.0003,-0.0007,-0.0043,-0.0055,-0.0057,-0.0161,-0.0162,-0.0086,-0.003,0,0,0,0.0134,0.0135,0.0134,0.0125,0.0107,0.0045,0.0035,0.0001,-0.001,-0.0053,-0.0057,-0.0161,-0.0161,-0.0087,-0.0034,-0.0034,0,0,0,0.0148,0.0158,0.0135,0.0144,0.0108,0.0086,0.0036,0.0008,-0.0023,-0.0055,-0.0161,-0.0162,-0.0087,-0.0036,-0.0035,0.0039,0,0,0,0.0168,0.0161,0.0166,0.0144,0.0131,0.0091,0.0071,0.0007,-0.0053,-0.0138,-0.014,-0.0085,-0.0034,-0.0034,-0.0015,0,0,0,0,0.0177,0.0186,0.0177,0.0166,0.0135,0.011,0.0048,0.0008,-0.0068,-0.0075,-0.0125,-0.0096,-0.0098,-0.0062,-0.0166,-0.0166,-0.0166,-0.0166,-0.0166,0.0217,0.0202,0.0213,0.0192,0.0175,0.0113,0.0081,0.0007,-0.0047,-0.008,-0.0062,-0.0047,-0.001,-0.011,-0.011,-0.011,-0.0109,-0.0109,-0.0109,0.0254,0.0269,0.0252,0.0264,0.0224,0.0208,0.0114,0.0066,-0.0001,-0.0043,-0.005,-0.002,-0.0102,-0.0104,-0.0105,-0.0105,-0.0106,-0.0106,-0.0107,0.0284,0.0293,0.0306,0.0326,0.0337,0.029,0.0295,0.0209,0.0079,0.0073,0.0081,-0.0006,0.0021,0.0066,0.0066,0.0067,0.0067,0.0067,0.0067,0.0313,0.0326,0.0377,0.0402,0.0442,0.0466,0.0416,0.0359,0.0233,0.0181,0.0103,0.0011,0.0006,0.0029,0.0071,0.007,0.007,0.0069,0.0069,0.0357,0.0367,0.0447,0.0498,0.0587,0.0605,0.0574,0.0468,0.0408,0.0314,0.021,0.0202,0.0179,0.0169,0.0197,0.0292,0.0293,0.0294,0,0.0388,0.0396,0.0517,0.0612,0.0687,0.0686,0.0658,0.0577,0.0409,0.0415,0.035,0.0236,0.0229,0.0205,0.0197,0.0233,0,0,0,0.0422,0.0453,0.0544,0.0634,0.0732,0.0683,0.0648,0.0615,0.0454,0.0406,0.0323,0.0315,0.0197,0.0082,0.0027,0.002,0.0054,0,0]}]]